Meath Environmental Platform

Observations for Trim Patrick St

Time AQI Temp °C Hum % Pres Pa CO μg/m³ H₂S μg/m³ NO μg/m³ NO₂ μg/m³ O₃ μg/m³ SO₂ μg/m³ PM1 μg/m³ PM2.5 μg/m³ PM10 μg/m³
Sunday 2 August 2026
04:57 2 13.1 77 38,460 0.31 3.26 2.1 21.05 25.58 0 8 13.86 15.24
04:56 2 13.1 77 38,460 0.31 4.24 2.18 28.79 21.11 0 7.14 13.18 14.5
04:55 2 13.1 77 38,460 0.3 3.75 2.12 27.65 22.59 0 6.29 10.35 11.38
04:54 2 13.1 77 38,460 0.31 2.87 2.06 23.48 25.2 0 6.29 11.76 12.93
04:53 2 13.1 77 38,460 0.3 3.28 1.95 26.24 24.23 0 7.14 12.47 13.72
04:52 2 13.1 77 38,460 0.3 2.74 2.03 24.32 25.61 0 7.14 10.35 11.38
04:51 2 13.1 77 38,460 0.3 2.71 2.1 25.16 23.47 0 7.14 12.46 13.71
04:49 2 13.1 77 38,460 0.3 2.35 2.5 24.55 24.08 0 6.29 13.19 14.51
04:48 2 13.1 77 38,460 0.31 1.81 2.84 23.7 24.65 0 8 13.89 15.28
04:47 2 13.1 77 38,460 0.3 1.91 2.94 22.83 24.21 0 7.14 13.19 14.51
04:45 2 13.1 77 38,460 0.31 1.99 2.53 23.37 24.26 0 7.14 11.78 12.96
04:44 2 13.1 77 38,460 0.3 1.99 2.67 23.37 24.06 0 5.43 10.37 11.41
04:43 2 13.1 77 38,460 0.31 1.55 2.37 23.08 22.84 0 6.29 12.49 13.74
04:41 2 13.1 77 38,460 0.3 1.7 2.53 23.05 22.55 0 7.14 12.5 13.75
04:40 2 13.1 77 38,460 0.31 1.73 2.38 23.63 23.25 0 7.14 11.08 12.19
04:38 2 13.1 77 38,460 0.31 1.62 2.41 23.88 22.11 0 7.14 11.09 12.2
04:37 2 13.1 77 38,460 0.31 1.68 2.24 23.88 20.52 0 8 13.92 15.31
04:36 2 13.1 77 38,460 0.31 1.08 2.25 23.88 20.69 0 8 14.63 16.09
04:31 2 13.1 77 38,460 0.32 2.48 2.53 25.27 21.29 0 7.14 12.51 13.77
04:30 2 13.1 76 38,460 0.32 2.95 2.12 29.01 20.77 0 6.29 12.52 13.78